Regional Weather Roundup
Issued by NWS

Home | Current Version | Previous Version | Graphics & Text | Print | Product List | Glossary On
Versions: 1 2 3 4 5 6 7 8 9 10 11 12 13 14 15 16 17 18 19 20 21 22 23 24 25 26 27 28 29 30 31 32 33 34 35 36 37 38 39 40 41 42 43 44 45 46 47 48 49 50
000
ASUS43 KDMX 201906
RWRIA

WEATHER ROUNDUP FOR IOWA
NATIONAL WEATHER SERVICE DES MOINES IA
200 PM CDT FRI OCT 20 2017

NOTE: "FAIR" INDICATES FEW OR NO CLOUDS BELOW 12,000 FEET WITH NO
SIGNIFICANT WEATHER AND/OR OBSTRUCTIONS TO VISIBILITY.

* - THESE STATIONS ARE NOT NWS STATIONS...THUS NOT UNDER NWS
QUALITY CONTROL.  THEY ALSO DO NOT REPORT WEATHER SUCH
AS PRECIPITATION OR FOG.

IAZ001>003-012>014-020>022-031>034-043>046-202000-
   NORTHWEST IOWA

CITY           SKY/WX    TMP DP  RH WIND       PRES   REMARKS
CHEROKEE *     SUNNY     74  57  55 S22G32    29.77F
DENISON *      SUNNY     75  57  53 S23G31    29.81F
LE MARS *      SUNNY     75  55  50 S26G36    29.72F
ORANGE CITY *  SUNNY     73  57  56 S23G31    29.73F
SHELDON *      SUNNY     77  54  44 S21G31    29.72F
SIOUX CITY     SUNNY     76  57  51 S18G25    29.73F
SPENCER        SUNNY     76  54  46 S26G33    29.77F
STORM LAKE *   CLOUDY    75  55  50 S22G33    29.79F
$$

IAZ055>058-069>071-079>083-090>094-202000-
   SOUTHWEST IOWA

CITY           SKY/WX    TMP DP  RH WIND       PRES   REMARKS
ATLANTIC *     SUNNY     75  55  50 S21G28    29.84F
AUDUBON *      CLOUDY    73  57  56 S13G24    29.85F
CLARINDA *     CLOUDY    75  57  53 S17G28    29.89F
COUNCIL BLFS * SUNNY     73  59  60 S18G35    29.81F
CRESTON *      SUNNY     73  55  53 S22G32    29.92F
HARLAN  *      MOSUNNY   75  57  53 S21G29    29.85F
LAMONI         SUNNY     72  55  55 S16G24    29.96F
RED OAK *      SUNNY     75  57  53 S22       29.84F
SHENANDOAH *   CLOUDY    77  57  50 S22G32    29.85F
$$

IAZ047>049-059>061-072>074-084-202000-
   CENTRAL IOWA

CITY           SKY/WX    TMP DP  RH WIND       PRES   REMARKS
AMES           MOSUNNY   72  56  57 S21       29.91F
ANKENY *       CLOUDY    73  55  53 S18G24    29.92F
BOONE *        MOSUNNY   73  54  49 S18       29.89F
CHARITON *     SUNNY     73  54  49 S20G25    29.96F
DES MOINES     CLOUDY    76  54  46 S18G25    29.92F
GRINNELL*      CLOUDY    73  50  43 S14       29.97F
KNOXVILLE *    SUNNY     73  52  46 S17G23    29.95F
MARSHALLTOWN   MOSUNNY   73  54  51 S18       29.93F
NEWTON *       CLOUDY    73  52  46 S21G26    29.94F
PELLA *        SUNNY     74  51  44 S13       29.98F
PERRY *          N/A     76  51  42 S16G23    29.89F
$$

IAZ004>006-015-016-023>025-035-036-202000-
   NORTH CENTRAL IOWA

CITY           SKY/WX    TMP DP  RH WIND       PRES   REMARKS
ALGONA *       MOSUNNY   77  54  44 S21G37    29.83F
CLARION *      PTSUNNY   75  54  46 S22G30    29.86F
ESTHERVILLE    SUNNY     75  54  47 S26G33    29.78F
FORT DODGE *   MOSUNNY   74  54  49 S16G24    29.85F
MASON CITY     SUNNY     74  50  42 S18G33    29.88F
FOREST CITY *    N/A     72  52  49 S18G31    29.86F
WEBSTER CITY * MOSUNNY   75  52  43 S16G29    29.86F
IOWA FALLS *     N/A     74  53  47 S20       29.92F
$$

IAZ007>011-017>019-026>030-037>042-050>054-066-202000-
   NORTHEAST IOWA

CITY           SKY/WX    TMP DP  RH WIND       PRES   REMARKS
CEDAR RAPIDS   MOSUNNY   74  49  41 S14       29.99F
CHARLES CITY * SUNNY     75  43  31 S15G22    29.92F
CLINTON *      SUNNY     76  50  40 S16       30.04F
DECORAH *      SUNNY     75  46  35 S12G21    29.94F
DUBUQUE        SUNNY     73  50  44 S17       30.02F
MONTICELLO *   SUNNY     75  50  41 SE15      29.99F
OELWEIN *      CLOUDY    73  50  43 S18       29.96F
WATERLOO       CLOUDY    74  45  35 S15       29.93F
$$

IAZ064-065-067-068-078-202000-
   EAST CENTRAL IOWA

CITY           SKY/WX    TMP DP  RH WIND       PRES   REMARKS
DAVENPORT      MOSUNNY   77  50  38 S10       30.05F
IOWA CITY      MOSUNNY   77  52  41 S14       30.02F
MT. PLEASANT * PTSUNNY   74  49  41 SE15      30.02F
MUSCATINE *    MOSUNNY   75  50  41 S12G20    30.02F
QUAD CITIES    MOSUNNY   77  48  35 S12       30.03F
$$

IAZ062-063-075>077-085>089-095>099-202000-
   SOUTHEAST IOWA

CITY           SKY/WX    TMP DP  RH WIND       PRES   REMARKS
BURLINGTON     CLOUDY    75  52  44 S13       30.04F
FAIRFIELD *    CLOUDY    73  48  40 S16G25    30.00F
FORT MADISON * MOSUNNY   73  55  53 S8        30.04F
KEOKUK *       PTSUNNY   72  55  56 S12       30.03F
OSKALOOSA *      N/A     73  52  47 S15       29.99F
CENTERVILLE *    N/A     73  54  49 S14       30.00F
OTTUMWA        MOSUNNY   73  52  47 S15       29.98F
WASHINGTON *   MOSUNNY   75  50  41 S13G20    30.02F
$$

ABBREVIATIONS USED IN REMARKS
   TC - TEMPERATURES IN CELSIUS
  WCI - WIND CHILL INDEX
   HX - HEAT INDEX
  VSB - VISIBILITY
$$





USA.gov is the U.S. government's official web portal to all federal, state and local government web resources and services.